Weather History for Monticello, NY

Change the Weather History Date:

Thursday, January 1, 2004

  Actual Average Record
Temperature  
Mean Temperature 34 °F -  
Max Temperature 37 °F 31 °F 55 °F (2011)
Min Temperature 30 °F 18 °F 0 °F (1997)
Degree Days  
Heating Degree Days 32    
Moisture  
Dew Point 20 °F    
Average Humidity 60    
Maximum Humidity 69    
Minimum Humidity 48    
Precipitation  
Precipitation 0.00 in - - ()
Sea Level Pressure  
Sea Level Pressure 30.21 in    
Wind  
Wind Speed 16 mph (WNW)    
Max Wind Speed 24 mph    
Max Gust Speed 36 mph    
Visibility 10 miles    
Events      
Averages and records for this station are not official NWS values.
T = Trace of Precipitation, MM = Missing Value Source: NWS Daily Summary

Daily Weather History Graph

Daily Weather History Graph

Search for Another Location

Airport:

Trip Planner

Search our weather history database for the weather conditions in past years. The results will help you decide how hot, cold, wet, or windy it might be!

Date:

Astronomy

Jan. 01, 2004 Rise Set
Actual Time 7:26 AM EST 4:38 PM EST
Civil Twilight 6:54 AM EST 5:10 PM EST
Nautical Twilight 6:19 AM EST 5:45 PM EST
Astronomical Twilight 5:46 AM EST 6:19 PM EST
Moon 12:49 PM EST (1/1) 1:52 AM EST (1/1)
Length of Visible Light 10h 15m
Length of Day
9h 12m
Waxing Gibbous, 71% of the Moon is Illuminated
Jan 1
Waxing Gibbous
Jan 7
Full
Jan 14
Last Quarter
Jan 21
New
Jan 29
First Quarter

Hourly Weather History & Observations

Time (EST) Temp. Windchill Dew Point Humidity Pressure Visibility Wind Dir Wind Speed Gust Speed Precip Events Conditions
12:15 AM 37.4 °F 26.1 °F 19.4 °F 48% 30.01 in 10.0 mi West 24.2 mph 33.4 mph N/A   Clear
12:35 AM 37.4 °F 26.6 °F 19.4 °F 48% 30.02 in 10.0 mi WNW 21.9 mph 35.7 mph N/A   Clear
12:55 AM 37.4 °F 27.2 °F 19.4 °F 48% 30.02 in 10.0 mi West 19.6 mph 33.4 mph N/A   Clear
1:15 AM 35.6 °F 23.7 °F 19.4 °F 52% 30.04 in 10.0 mi WNW 24.2 mph 34.5 mph N/A   Clear
1:35 AM 35.6 °F 24.2 °F 17.6 °F 48% 30.05 in 10.0 mi WNW 21.9 mph 27.6 mph N/A   Clear
1:55 AM 33.8 °F 23.9 °F 19.4 °F 56% 30.06 in 10.0 mi WNW 15.0 mph 28.8 mph N/A   Clear
2:15 AM 33.8 °F 23.5 °F 19.4 °F 56% 30.08 in 10.0 mi WNW 16.1 mph 28.8 mph N/A   Clear
2:35 AM 33.8 °F 22.5 °F 19.4 °F 56% 30.08 in 10.0 mi WNW 19.6 mph 27.6 mph N/A   Clear
2:55 AM 32.0 °F 21.6 °F 19.4 °F 60% 30.09 in 10.0 mi WNW 15.0 mph 21.9 mph N/A   Clear
3:15 AM 32.0 °F 22.5 °F 19.4 °F 60% 30.10 in 10.0 mi WNW 12.7 mph 19.6 mph N/A   Clear
3:35 AM 32.0 °F 20.5 °F 19.4 °F 60% 30.11 in 10.0 mi West 18.4 mph 25.3 mph N/A   Clear
3:55 AM 30.2 °F 18.9 °F 19.4 °F 64% 30.12 in 10.0 mi WNW 16.1 mph 27.6 mph N/A   Clear
4:15 AM 30.2 °F 19.3 °F 19.4 °F 64% 30.12 in 10.0 mi WNW 15.0 mph 25.3 mph N/A   Clear
4:35 AM 30.2 °F 17.8 °F 17.6 °F 60% 30.12 in 10.0 mi WNW 19.6 mph 28.8 mph N/A   Clear
4:55 AM 30.2 °F 19.3 °F 17.6 °F 60% 30.13 in 10.0 mi WNW 15.0 mph 26.5 mph N/A   Clear
5:15 AM 30.2 °F 18.5 °F 17.6 °F 60% 30.14 in 10.0 mi WNW 17.3 mph 25.3 mph N/A   Clear
5:35 AM 30.2 °F 18.1 °F 17.6 °F 60% 30.15 in 10.0 mi WNW 18.4 mph 31.1 mph N/A   Clear
5:55 AM 30.2 °F 18.5 °F 17.6 °F 60% 30.17 in 10.0 mi WNW 17.3 mph 27.6 mph N/A   Clear
6:15 AM 30.2 °F 19.3 °F 17.6 °F 60% 30.19 in 10.0 mi NW 15.0 mph 28.8 mph N/A   Scattered Clouds
6:35 AM 30.2 °F 20.8 °F 19.4 °F 64% 30.19 in 10.0 mi WNW 11.5 mph 21.9 mph N/A   Mostly Cloudy
6:55 AM 30.2 °F 18.5 °F 19.4 °F 64% 30.19 in 10.0 mi WNW 17.3 mph - N/A   Mostly Cloudy
7:15 AM 30.2 °F 18.1 °F 19.4 °F 64% 30.20 in 10.0 mi WNW 18.4 mph 25.3 mph N/A   Scattered Clouds
7:35 AM 30.2 °F 18.1 °F 19.4 °F 64% 30.21 in 10.0 mi NW 18.4 mph 27.6 mph N/A   Scattered Clouds
7:55 AM 30.2 °F 20.2 °F 19.4 °F 64% 30.22 in 10.0 mi NW 12.7 mph 21.9 mph N/A   Mostly Cloudy
8:15 AM 30.2 °F 20.2 °F 19.4 °F 64% 30.24 in 10.0 mi West 12.7 mph 21.9 mph N/A   Mostly Cloudy
8:35 AM 30.2 °F 20.8 °F 21.2 °F 69% 30.25 in 10.0 mi NW 11.5 mph 21.9 mph N/A   Mostly Cloudy
8:55 AM 30.2 °F 20.2 °F 21.2 °F 69% 30.26 in 10.0 mi NW 12.7 mph 18.4 mph N/A   Overcast
9:15 AM 32.0 °F 21.2 °F 19.4 °F 60% 30.27 in 10.0 mi WNW 16.1 mph 24.2 mph N/A   Mostly Cloudy
9:35 AM 32.0 °F 22.5 °F 19.4 °F 60% 30.29 in 10.0 mi NW 12.7 mph 21.9 mph N/A   Mostly Cloudy
9:55 AM 32.0 °F 20.8 °F 21.2 °F 64% 30.29 in 10.0 mi NW 17.3 mph 28.8 mph N/A   Mostly Cloudy
10:15 AM 33.8 °F 22.8 °F 19.4 °F 56% 30.29 in 10.0 mi WNW 18.4 mph 31.1 mph N/A   Scattered Clouds
10:35 AM 33.8 °F 24.8 °F 21.2 °F 60% 30.30 in 10.0 mi West 12.7 mph 27.6 mph N/A   Mostly Cloudy
10:55 AM 33.8 °F 23.9 °F 21.2 °F 60% 30.30 in 10.0 mi WNW 15.0 mph 25.3 mph N/A   Overcast
11:15 AM 33.8 °F 22.8 °F 21.2 °F 60% 30.29 in 10.0 mi WNW 18.4 mph 26.5 mph N/A   Overcast
11:35 AM 33.8 °F 23.2 °F 21.2 °F 60% 30.28 in 10.0 mi WNW 17.3 mph 25.3 mph N/A   Overcast
11:55 AM 33.8 °F 25.3 °F 21.2 °F 60% 30.26 in 10.0 mi WNW 11.5 mph 19.6 mph N/A   Overcast
12:15 PM 33.8 °F 23.9 °F 21.2 °F 60% 30.26 in 10.0 mi WNW 15.0 mph 19.6 mph N/A   Mostly Cloudy
12:35 PM 33.8 °F 24.8 °F 21.2 °F 60% 30.26 in 10.0 mi WNW 12.7 mph 20.7 mph N/A   Mostly Cloudy
12:55 PM 35.6 °F 26.6 °F 21.2 °F 56% 30.26 in 10.0 mi WNW 13.8 mph 23.0 mph N/A   Mostly Cloudy
1:15 PM 35.6 °F 28.0 °F 21.2 °F 56% 30.25 in 10.0 mi WNW 10.4 mph - N/A   Scattered Clouds
1:35 PM 35.6 °F 27.1 °F 21.2 °F 56% 30.25 in 10.0 mi WNW 12.7 mph - N/A   Partly Cloudy
1:55 PM 35.6 °F 28.0 °F 21.2 °F 56% 30.25 in 10.0 mi West 10.4 mph 16.1 mph N/A   Clear
2:15 PM 35.6 °F 28.0 °F 21.2 °F 56% 30.25 in 10.0 mi WNW 10.4 mph 16.1 mph N/A   Clear
2:35 PM 35.6 °F 26.6 °F 23.0 °F 60% 30.25 in 10.0 mi WNW 13.8 mph 17.3 mph N/A   Clear
2:55 PM 35.6 °F 28.0 °F 21.2 °F 56% 30.25 in 10.0 mi WNW 10.4 mph 20.7 mph N/A   Clear
3:15 PM 35.6 °F 29.2 °F 21.2 °F 56% 30.26 in 10.0 mi WNW 8.1 mph - N/A   Clear
3:35 PM 35.6 °F 27.5 °F 21.2 °F 56% 30.27 in 10.0 mi WNW 11.5 mph - N/A   Clear
3:55 PM 35.6 °F 27.5 °F 21.2 °F 56% 30.27 in 10.0 mi West 11.5 mph - N/A   Clear
4:15 PM 33.8 °F 25.8 °F 21.2 °F 60% 30.27 in 10.0 mi West 10.4 mph - N/A   Clear
4:35 PM 33.8 °F 28.6 °F 21.2 °F 60% 30.28 in 10.0 mi WNW 5.8 mph - N/A   Clear
4:55 PM 33.8 °F 27.0 °F 21.2 °F 60% 30.28 in 10.0 mi WNW 8.1 mph - N/A   Clear
5:15 PM 32.0 °F 25.6 °F 21.2 °F 64% 30.28 in 10.0 mi WNW 6.9 mph - N/A   Clear
5:35 PM 32.0 °F 28.7 °F 21.2 °F 64% 30.29 in 10.0 mi NW 3.5 mph - N/A   Clear
5:55 PM 32.0 °F 27.5 °F 21.2 °F 64% 30.28 in 10.0 mi NW 4.6 mph - N/A   Clear
6:15 PM 30.2 °F 26.7 °F 21.2 °F 69% 30.28 in 10.0 mi NNW 3.5 mph - N/A   Clear
6:35 PM 30.2 °F 26.7 °F 21.2 °F 69% 30.27 in 10.0 mi North 3.5 mph - N/A   Clear
6:55 PM 30.2 °F 26.7 °F 21.2 °F 69% 30.27 in 10.0 mi NNW 3.5 mph - N/A   Clear
7:15 PM 30.2 °F 25.4 °F 21.2 °F 69% 30.28 in 10.0 mi NW 4.6 mph - N/A   Clear
7:35 PM 30.2 °F 26.7 °F 21.2 °F 69% 30.28 in 10.0 mi WNW 3.5 mph - N/A   Clear
7:55 PM 30.2 °F 25.4 °F 21.2 °F 69% 30.29 in 10.0 mi NNW 4.6 mph - N/A   Clear
8:15 PM 28.4 °F - 21.2 °F 74% 30.28 in 10.0 mi Calm Calm - N/A   Clear
8:35 PM 30.2 °F - 21.2 °F 69% 30.28 in 10.0 mi Calm Calm - N/A   Clear
8:55 PM 30.2 °F - 21.2 °F 69% 30.27 in 10.0 mi Calm Calm - N/A   Clear
9:15 PM 30.2 °F 26.7 °F 21.2 °F 69% 30.27 in 10.0 mi SSE 3.5 mph - N/A   Clear
9:35 PM 28.4 °F 23.3 °F 21.2 °F 74% 30.28 in 10.0 mi SSW 4.6 mph - N/A   Clear
9:55 PM 28.4 °F 23.3 °F 21.2 °F 74% 30.29 in 10.0 mi SSW 4.6 mph - N/A   Clear
10:15 PM 28.4 °F 24.6 °F 21.2 °F 74% 30.29 in 10.0 mi SSW 3.5 mph - N/A   Clear
10:35 PM 28.4 °F 24.6 °F 21.2 °F 74% 30.28 in 10.0 mi SW 3.5 mph - N/A   Clear
10:55 PM 28.4 °F - 21.2 °F 74% 30.27 in 10.0 mi Calm Calm - N/A   Clear
11:15 PM 26.6 °F - 21.2 °F 80% 30.27 in 10.0 mi Calm Calm - N/A   Partly Cloudy
11:35 PM 28.4 °F - 21.2 °F 74% 30.27 in 10.0 mi Calm Calm - N/A   Mostly Cloudy
11:55 PM 28.4 °F - 23.0 °F 80% 30.25 in 10.0 mi Calm Calm - N/A   Overcast